Location: Exposition View
(41.7925°N, 88.3437°W)
Time: 02:08:14
(UTC+00:00)

Daily predictions for brighter satellites

Satellite Brightness Start Highest point End
(mag) Time Altitude Azimuth Time Altitude Azimuth Time Altitude Azimuth
CZ-2D R/B 3.2 00:15:54 10° SSE 00:19:47 82° ENE 00:23:41 10° N
Cosmos 2084 Rocket 3.6 00:16:02 10° NW 00:20:31 84° NE 00:25:03 10° SE
Cosmos 807 4.5 00:19:52 10° S 00:22:53 52° E 00:26:27 10° NNE
Lacrosse 5 rocket 4.0 00:20:43 10° WNW 00:23:27 16° NNW 00:26:18 10° NNE
Cosmos 1937 Rocket 3.5 00:18:32 10° SSW 00:23:47 82° ESE 00:29:02 10° NNE
Cosmos 1544 4.0 00:21:30 10° SSW 00:25:05 54° W 00:28:41 10° N
Cosmos 2112 Rocket 4.3 00:22:39 10° NNW 00:27:51 73° WSW 00:33:03 10° S
Cosmos 1943 3.2 00:23:26 10° NNW 00:29:07 81° ENE 00:34:47 10° SSE
CZ-2C R/B 2.3 00:26:28 10° WSW 00:29:38 27° S 00:32:38 10° ESE
Cosmos 1939 Rocket 3.8 00:26:51 10° S 00:30:52 55° W 00:34:58 10° NNW
Cosmos 1680 Rocket 4.3 00:25:48 10° NNW 00:30:55 58° WSW 00:36:03 10° S
CSL-04 Debris 4.2 00:32:11 10° SSE 00:37:30 65° ENE 00:42:51 10° N
Iridium 4 Rocket 3.8 00:33:54 10° S 00:38:48 75° W 00:44:14 10° N
Cosmos 1975 Rocket 2.9 00:34:34 10° N 00:38:55 72° E 00:43:12 10° SSE
Helios 1A Rocket 4.5 00:38:12 10° S 00:42:03 40° W 00:45:57 10° NNW
COSMO-SKYMED 1 4.4 00:40:10 10° N 00:44:09 36° WNW 00:48:06 10° SW
CSL-04 Rocket 3.7 00:38:55 10° SSE 00:44:17 70° ENE 00:49:46 10° N
Cosmos 1603 4.4 00:45:25 10° NNW 00:50:59 58° WSW 00:56:27 10° S
Cosmos 1674 4.3 00:51:02 10° NNE 00:53:38 17° ENE 00:54:01 17° E
Abrixas rocket 3.9 00:53:06 10° NW 00:55:20 20° N 00:57:14 12° NE
NOSS 2-2 (E) 4.2 00:52:33 10° SW 00:55:55 46° NW 00:59:39 10° NNE
HJ-1C 3.2 00:55:07 10° SSE 00:58:24 86° E 01:01:43 10° N
H-2A R/B 1.9 00:54:14 10° SSE 00:59:10 79° ENE 01:04:15 10° N
Resurs 01 Rocket 3.8 00:59:14 11° ENE 00:59:14 11° ENE 01:00:04 10° NE
SJ 16-02 4.4 00:58:14 10° W 01:00:53 16° WNW 01:03:32 10° NNW
Cosmos 1072 Rocket 4.4 00:54:48 10° S 01:01:00 74° E 01:07:20 10° N
Sich 1 Rocket 3.7 00:57:15 10° S 01:01:44 80° W 01:06:18 10° N
Nadezhda 4 Rocket 4.3 00:56:10 10° N 01:01:58 43° ENE 01:07:44 10° SSE
ATLAS 2AS CENTAUR R/B 3.8 00:55:56 10° SSE 01:02:01 25° ESE 01:08:10 10° ENE
BREEZE-M TANK 3.6 00:48:16 10° WSW 01:02:03 82° SSE 01:05:14 17° ENE
Meteor 1-12 Rocket 4.2 00:58:48 10° S 01:04:42 73° E 01:10:31 10° NNE
NOSS 2-2 (D) 4.1 01:01:31 10° SW 01:04:53 47° NW 01:08:35 10° NNE
Cosmos 2034 Rocket 4.1 01:01:35 10° SSE 01:07:45 54° E 01:13:54 10° NNE
CENTAUR R/B 3.7 01:01:21 10° NNW 01:08:52 41° NE 01:14:15 21° E
CZ-4 R/B 3.6 01:10:02 10° SSW 01:13:42 29° W 01:17:24 10° NW
ATLAS 3B R/B 4.3 01:11:51 10° NNW 01:16:30 19° NNE 01:20:03 13° ENE
Okean 1 Rocket 3.9 01:16:18 29° E 01:16:43 30° E 01:20:37 10° NNE
Okean 2 Rocket 3.1 01:13:39 10° S 01:18:09 84° W 01:22:39 10° N
Cosmos 1707 2.9 01:14:22 10° NNW 01:18:12 72° W 01:22:00 10° S
Ariane Rocket 3.1 01:16:43 19° SE 01:20:12 55° ENE 01:25:10 10° N
Cosmos 1300 Rocket 3.6 01:16:26 10° S 01:20:49 80° W 01:25:16 10° N
OBJECT-B 2.8 01:23:19 16° NE 01:23:19 16° NE 01:24:26 10° NNE
USA 238 DEB 4.0 01:17:49 10° NNW 01:25:00 62° NE 01:29:18 27° ESE
USA 238 4.0 01:17:55 10° NNW 01:25:06 61° NE 01:29:22 27° ESE
Meteor 2-5 Rocket 4.4 01:21:28 10° N 01:26:36 34° ENE 01:27:52 31° E
In-Cosmos 22 4.0 01:23:03 10° N 01:28:23 88° W 01:33:45 10° S
ARGOS 3.3 01:23:11 10° S 01:28:32 76° WSW 01:33:55 10° NNW
Resurs 1-3 4.4 01:32:05 32° ENE 01:32:05 32° ENE 01:35:51 10° N
SJ-6B 2.6 01:33:14 55° ESE 01:33:39 61° ENE 01:37:22 10° N
SL-08 RB Rocket 3.7 01:30:56 17° SSE 01:34:31 87° WSW 01:39:06 10° NNW
CZ-2C R/B 2.6 01:29:01 10° NNE 01:34:35 71° ESE 01:40:11 10° S
Cosmos 2298 Rocket 4.4 01:33:34 10° SSW 01:38:52 68° WNW 01:44:12 10° NNE
Cosmos 1634 Rocket 4.3 01:37:17 33° SE 01:39:12 42° E 01:44:57 10° NNE
MOS 1 Rocket 4.4 01:37:52 10° N 01:42:01 40° WNW 01:46:01 10° SW
Cosmos 1536 Rocket 3.6 01:38:37 10° N 01:43:05 80° W 01:45:33 26° S
USA 186 2.1 01:43:19 55° SW 01:43:39 59° W 01:46:50 10° NNW
Meteor 1-24 Rocket 4.3 01:39:20 10° N 01:44:26 36° ENE 01:44:32 36° ENE
SPOT 3 Rocket 3.9 01:44:55 42° E 01:45:18 43° ENE 01:50:09 10° N
Cosmos 1025 Rocket 3.9 01:43:41 10° NNW 01:47:56 51° W 01:51:49 12° SSW
Cosmos 2285 Rocket 3.9 01:42:56 10° S 01:49:12 75° ESE 01:55:32 10° NNE
NOSS 3-2 (A) 4.0 01:44:16 10° NW 01:51:58 90° WSW 01:56:30 32° SSE
Cosmos 1844 3.7 01:47:12 10° SSW 01:52:55 85° WNW 01:58:37 10° NNE
Meteor 2-13 Rocket 4.3 01:46:56 10° N 01:53:06 70° E 01:55:29 39° SSE
Cosmos 1626 4.2 01:51:22 10° N 01:52:28 17° NNE 01:52:28 17° NNE
ISS -1.7 01:52:15 10° WNW 01:55:03 23° NNW 01:55:46 22° N
Cosmos 1844 Rocket 3.1 01:52:02 10° SW 01:57:32 63° WNW 02:03:06 10° NNE
Cosmos 1092 Rocket 3.8 01:56:44 10° N 02:02:55 80° E 02:05:04 43° SSE
Cosmos 2195 Rocket 4.3 01:57:34 10° N 02:03:50 72° E 02:05:23 51° SSE
Lacrosse 5 rocket 4.2 02:02:56 10° NNW 02:04:18 11° N 02:05:42 10° NNE
Cosmos 2026 Rocket 3.9 02:01:12 10° N 02:07:33 66° E 02:08:37 57° SE
CZ-2C R/B 3.4 02:06:07 10° WSW 02:07:04 15° SW 02:07:04 15° SW
USA 234 3.1 02:04:41 23° NE 02:08:58 72° SE 02:15:30 10° SW
MetOp-A 4.3 02:07:40 36° S 02:09:49 68° WSW 02:15:10 10° NNW
Cosmos 1125 Rocket 4.1 02:06:57 10° SW 02:12:09 56° WNW 02:17:24 10° NNE
Milstar 3 Cent rocket 4.0 02:11:49 10° SW 02:14:14 16° SSW 02:14:14 16° SSW
Cosmos 1428 Rocket 4.3 02:12:11 10° N 02:18:28 76° E 02:19:00 70° SE
Cosmos 2279 Rocket 4.4 02:21:54 46° NE 02:21:54 46° NE 02:26:36 10° NNE
Cosmos 1833 Rocket 3.8 02:17:56 10° N 02:21:52 30° NNE 02:21:52 30° NNE
Cosmos 2142 Rocket 4.4 02:26:52 69° ENE 02:26:52 69° ENE 02:32:37 10° NNE
NOSS 3-2 (C) 4.0 02:19:58 10° NW 02:27:41 85° WSW 02:29:49 55° SSE
Cosmos 1674 4.5 02:25:48 10° NNW 02:28:51 30° W 02:28:51 30° W
NOSS 3-4 (A) 3.2 02:23:41 10° SSW 02:29:34 89° WNW 02:35:50 10° NE
NOSS 3-4 (C) 3.2 02:23:48 10° SSW 02:29:40 90° SE 02:35:56 10° NE
Resurs 01 Rocket 3.0 02:36:49 35° NNW 02:36:49 35° NNW 02:39:27 10° NNW
ATLAS 2AS CENTAUR R/B 3.1 02:44:23 10° SW 02:52:20 77° NW 03:00:16 10° NNE
CENTAUR R/B 3.4 02:51:56 10° NW 03:00:05 62° WSW 03:01:27 56° SSW
Cosmos 2082 Rocket 3.8 03:02:38 10° NNW 03:05:22 27° N 03:05:22 27° N
ATLAS 3B R/B 3.1 03:01:43 10° NNW 03:07:18 54° N 03:07:18 54° N
USA 234 4.3 03:52:10 40° NW 03:52:10 40° NW 03:57:44 10° W
Lacrosse 5 4.1 08:06:13 22° NE 08:06:13 22° NE 08:08:03 10° NE
CZ-2D R/B 4.3 08:02:36 10° N 08:04:03 19° N 08:04:03 19° N
Resurs 1-4 Rocket 4.3 08:08:50 10° N 08:10:13 18° N 08:10:13 18° N
USA 267 3.5 08:16:55 10° NE 08:22:28 66° ENE 08:22:28 66° ENE
Cosmos 1697 Rocket 3.6 08:48:35 40° N 08:48:35 40° N 08:52:23 10° NNE
Cosmos 1980 Rocket 2.4 08:52:46 67° NNE 08:52:46 67° NNE 08:57:39 10° NNE
BREEZE-M DEB (TANK) 4.3 08:55:57 46° S 08:57:14 50° SSE 09:01:35 10° E
USA 234 3.9 08:51:04 10° ESE 08:57:21 53° NNE 09:03:40 10° NW
Cosmos 2322 Rocket 4.2 08:55:32 12° SSE 08:59:18 23° E 09:03:37 10° NE
Meteor 1-26 Rocket 4.5 09:01:02 57° N 09:01:02 57° N 09:05:21 10° N
Cosmos 1821 Rocket 4.4 08:53:51 10° NNW 08:58:26 48° NW 08:58:26 48° NW
Cosmos 2263 Rocket 3.5 08:55:08 10° N 09:00:26 39° ENE 09:05:43 10° SE
SL-4 R/B 3.8 09:08:18 28° SE 09:08:18 28° SE 09:12:06 10° ENE
SL-16 R/B 3.6 09:05:31 21° SSE 09:08:24 33° ESE 09:13:25 10° NE
Cosmos 2228 Rocket 3.7 09:09:42 54° ENE 09:09:42 54° ENE 09:13:36 10° NNE
Cosmos 1934 Rocket 3.8 09:04:51 10° N 09:10:56 89° E 09:12:49 48° S
ADEOS II 3.5 09:06:21 10° N 09:09:06 26° NNW 09:09:06 26° NNW
ARIANE 5 R/B 2.9 09:08:41 10° N 09:12:41 51° NNW 09:12:41 51° NNW
CZ-2D R/B 4.5 09:12:05 10° N 09:14:55 41° N 09:14:55 41° N
Meteor 1-4 Rocket 4.4 09:16:32 27° E 09:16:33 27° E 09:19:34 10° NNE
CZ-2C R/B 4.0 09:15:08 10° NNE 09:19:51 35° E 09:24:34 10° SSE
ASTEX 1 3.5 09:14:53 10° N 09:19:17 65° NNW 09:19:17 65° NNW
IDEFIX/ARIANE 42P 2.4 09:14:48 10° N 09:20:03 75° WNW 09:20:03 75° WNW
ERBS 4.1 09:22:46 30° NE 09:22:46 30° NE 09:24:38 10° NE
USA 307 4.4 09:22:43 27° N 09:22:43 27° N 09:25:53 10° NE
CZ-2C R/B 3.6 09:18:54 10° NNE 09:21:45 48° NE 09:21:45 48° NE
USA 308 4.4 09:25:47 27° NNW 09:25:47 27° NNW 09:29:04 10° NE
SJ 16-02 2.0 09:24:26 10° N 09:28:46 55° ENE 09:33:04 10° SSE
Meteor 1-14 Rocket 4.0 09:25:43 10° NNW 09:31:16 67° W 09:32:16 55° SSW
Cosmos 44 3.7 09:33:21 44° NNW 09:33:21 44° NNW 09:37:18 10° NNE
Meteor 1-5 Rocket 4.3 09:28:51 10° N 09:34:11 70° E 09:39:35 10° SSE
DEBRIS 3.3 09:34:58 45° ENE 09:34:58 45° ENE 09:38:32 10° ESE
Meteor 2-6 Rocket 4.2 09:32:38 35° S 09:35:10 87° E 09:41:02 10° N
H-2A R/B 2.3 09:31:42 10° SSE 09:36:01 70° ENE 09:40:28 10° N
Cosmos 1238 Rocket 3.9 09:29:48 10° NNW 09:36:18 65° W 09:39:04 33° SSW
Cosmos 1605 Rocket 4.0 09:31:48 10° N 09:38:14 88° W 09:44:38 10° S
GENESIS II 4.3 09:40:57 65° NNW 09:40:57 65° NNW 09:44:42 10° NNE
BREEZE-M DEB (TANK) 4.4 09:39:27 38° WSW 09:42:50 88° SSE 10:11:05 10° ENE
Lacrosse 5 3.3 09:45:25 23° NW 09:46:29 24° NNW 09:50:37 10° NNE
Landsat 5 3.5 09:42:03 10° SSE 09:46:34 88° WSW 09:51:05 10° NNW
PAYLOAD A 4.0 09:42:28 10° NNE 09:47:10 71° ESE 09:50:29 19° S
ERS-2 3.0 09:45:31 10° SSE 09:49:03 50° ENE 09:52:37 10° N
Helios 1B 4.4 09:48:17 51° SSW 09:49:07 64° WSW 09:53:26 10° NNW
Cosmos 990 Rocket 4.3 09:44:19 10° NNW 09:49:29 66° ENE 09:54:40 10° SSE
X-37B 1.1 09:51:11 54° NNE 09:51:11 54° NNE 09:54:14 10° E
Cosmos 468 Rocket 4.0 09:50:04 27° SSW 09:53:03 87° ESE 09:58:21 10° NNE
ALOS 4.1 09:55:30 10° NNE 09:59:39 31° E 10:03:47 10° SSE
USA 267 4.1 10:00:13 10° NE 10:06:08 38° NNW 10:09:49 21° WNW
Cosmos 1536 3.5 10:02:29 10° N 10:06:31 58° E 10:10:31 10° SSE
NOSS 3-3 (A) 4.3 10:06:31 30° WSW 10:09:04 48° NW 10:15:21 10° NNE
NOSS 3-3 (C) 4.2 10:06:41 30° WSW 10:09:11 48° NW 10:15:26 10° NNE
Cosmos 1727 Rocket 4.0 10:05:18 10° SSW 10:11:38 73° W 10:17:58 10° N
Meteor 1-11 Rocket 3.7 10:08:09 10° NNW 10:13:56 82° W 10:19:34 10° S
Cosmos 2100 Rocket 4.3 10:08:30 10° N 10:14:54 73° E 10:21:14 10° SSE
CZ-4C R/B 4.3 10:20:58 24° WNW 10:20:58 24° WNW 10:23:05 10° NW
deb Chang Zheng 4 3.9 10:16:01 10° NNE 10:20:18 66° ESE 10:24:32 10° S
Cosmos 921 Rocket 4.0 10:20:07 24° WNW 10:20:34 25° WNW 10:24:03 10° N
SL-8 R/B 3.7 10:17:55 22° WNW 10:20:56 65° SSW 10:25:38 10° SE
Cosmos 1812 3.6 10:21:49 27° W 10:22:04 27° WNW 10:25:25 10° NNW
Cosmos 1500 4.4 10:19:57 10° NW 10:22:18 23° WNW 10:22:18 23° WNW
Meteor 1-27 Rocket 3.8 10:17:24 10° SSW 10:23:19 75° W 10:29:15 10° N
Cosmos 1898 Rocket 3.4 10:20:09 10° NNW 10:25:23 66° WSW 10:30:36 10° S
Cosmos 2360 Rocket 2.6 10:20:17 10° S 10:25:52 64° ESE 10:31:28 10° NNE
ATLAS 2AS CENTAUR R/B 3.5 10:18:35 10° NNW 10:25:57 56° NE 10:32:42 10° SE
ADEOS Rocket 3.1 10:21:42 10° S 10:28:36 76° WSW 10:34:49 10° NNW
Cosmos 1666 2.8 10:25:09 10° NNW 10:28:51 49° W 10:32:29 10° S
Cosmos 1459 Rocket 4.0 10:23:53 10° N 10:30:00 86° E 10:36:02 10° S
Cosmos 1707 Rocket 3.7 10:26:34 10° SSW 10:30:43 50° W 10:34:57 10° N
Cosmos 858 Rocket 4.4 10:30:39 10° NNW 10:35:51 75° WSW 10:41:02 10° SSE
FENGYUN 3A 3.9 10:31:14 10° NNE 10:36:39 76° ESE 10:42:02 10° S
Cosmos 1980 Rocket 3.9 10:34:33 14° WNW 10:36:43 17° NW 10:40:16 10° N
SAR-Lupe-4 3.6 10:33:19 10° SSE 10:36:54 86° ENE 10:40:30 10° NNW
Cosmos 2208 Rocket 4.1 10:33:56 10° SSW 10:39:11 81° ESE 10:44:25 10° NNE
USA 234 3.5 10:34:06 10° SSE 10:40:23 49° SW 10:46:41 10° WNW
Cosmos 2322 Rocket 2.4 10:37:25 10° SW 10:42:55 52° WNW 10:48:29 10° NNE
USA 32 4.3 10:38:47 10° NNW 10:43:47 45° W 10:48:44 10° SSW
Cosmos 2263 Rocket 2.9 10:39:19 10° NW 10:44:12 31° WSW 10:49:04 10° SSW
FALCON 9 DEB 3.6 10:43:18 18° W 10:45:30 45° NNW 10:48:50 10° NE
SL-4 R/B 2.5 10:43:55 16° WSW 10:47:33 60° NNW 10:52:19 10° NE
SAR-Lupe-1 4.0 10:45:30 10° S 10:49:03 69° WSW 10:52:37 10° NNW
USA 276 4.2 10:46:54 10° NW 10:49:32 22° NNE 10:52:10 10° ENE
Cosmos 1733 Rocket 3.0 10:45:35 10° NNW 10:49:52 60° W 10:54:07 10° S
Cosmos 1844 Rocket 3.2 10:44:46 10° NNW 10:50:23 64° ENE 10:56:00 10° SE
Cosmos 1937 Rocket 3.5 10:45:45 10° NNW 10:50:46 54° WSW 10:55:44 10° S
SKYMED 2 4.5 10:46:46 10° SSE 10:50:59 54° ENE 10:55:15 10° N
Meteor 1-4 Rocket 4.2 10:50:45 14° W 10:51:38 15° WNW 10:53:47 10° NNW
SL-16 R/B 2.9 10:47:26 11° WSW 10:52:24 36° WNW 10:57:39 10° N
Cosmos 2237 4.2 10:48:21 10° SSW 10:54:02 71° WNW 10:59:46 10° NNE
ADEOS 3.7 10:49:52 10° N 10:54:59 57° WNW 11:00:05 10° SSW
Cosmos 1814 Rocket 4.0 10:51:31 10° SSW 10:56:41 72° WNW 11:01:58 10° NNE
Cosmos 44 Rocket 3.3 10:52:42 10° SW 10:57:22 66° NW 11:02:13 10° NNE
Cosmos 841 Rocket 3.6 10:52:47 10° SW 10:57:54 56° WNW 11:03:04 10° NNE
CZ-2C R/B 3.4 10:53:31 10° N 10:57:55 29° WNW 11:02:21 10° SW
ERBS 4.4 10:55:48 10° WNW 10:57:55 16° NNW 11:00:03 10° NNE
ATLAS CENTAUR R/B 4.0 10:51:15 10° NW 10:58:39 33° NNE 11:02:03 10° E
Gbstr 26 Del rocket 4.5 10:54:51 10° WNW 11:02:37 59° SW 11:09:19 10° SSE
Cosmos 2173 Rocket 4.2 10:56:53 10° NNW 11:03:00 52° W 11:09:08 10° SSW
Cosmos 1975 4.2 10:59:29 10° N 11:03:21 44° ENE 11:07:10 10° SSE
SJ-12 4.1 10:59:35 10° NNE 11:03:44 82° ESE 11:07:52 10° S
Cosmos 1862 Rocket 3.9 11:00:45 10° SSW 11:04:56 44° WNW 11:09:08 10° N
SJ 16-02 3.0 11:04:47 10° WNW 11:06:48 13° W 11:08:48 10° WSW
CZ-4B R/B 2.3 11:05:05 10° SSW 11:07:43 25° W 11:10:26 10° NW
Cosmos 1743 2.6 11:04:33 10° NNW 11:08:19 64° W 11:12:05 10° S
H-2A R/B 4.0 11:11:19 10° WSW 11:12:28 11° W 11:13:38 10° WNW
Cosmos 2219 Rocket 3.0 11:10:41 10° S 11:16:13 59° ESE 11:21:48 10° NNE
